DECAYED

STARLINK-31150, 58730 (Decayed)

Orbit data source: Space-Track

STARLINK-31150, 58730 was a payload satellite owned by SpaceX/Seattle (US) in LEO that was launched on Sun, 07 Jan 2024 UTC via an FALCON 9 launch vehicle from the Air Force Eastern Test Range (AFETR). Payload-class satellites include a variety of spacecraft equipped with specific instruments for various scientific and technological missions. These include communications satellites like Starlink; space stations such as the ISS; scientific satellites like the Hubble; Earth observation satellites from companies like Planet Labs, Umbra, and HawkEye 360; GPS; miniature CubeSats for education and research; and military/defense satellites.

Not visible in the next 10 days
Identifier
58730, 2024-005C
Orbit
Decayed
Country
Flag of USUS
Related business
Manufacturer
SpaceX/Seattle
Mission
Decayed Commercial Communications
Bus & Motor
STARLINK V2M, Unknown motor
Mass
730 kg wet, ~700 kg dry
Launch date (UTC)
2024-01-07 (2 years ago)
Launch vehicle
FALCON 9
Launch site
Air Force Eastern Test Range (AFETR)
Object type
Payload
Rocket body
Debris
Shape & HBR
Box + 2 Pan, 17.7 m
Radar Cross Section
33.884 m², Large (>1 m²)

Expand to show TLE details & history
Last TLE update: 1 year ago

TLE from 1 year ago
0 STARLINK-31150
1 58730U 24005C   25171.90963612  .29759815  92604-5  31835-2 0  9990
2 58730  42.9760   7.5508 0012405 282.2842 179.3018 16.36190741 83321
Epoch: 2025-06-20T21:49Z
TLE epoch observation values (Epoch: 2025-06-20T21:49:52.560Z)
Latitude
42.05904°
Longitude
-123.602°
Altitude
186.914 km
Speed
7.796 km/s
True Right ascension
07h 32m 53s
True Declination
41° 52' 23"
Sunlit
Object was in daylight at epoch
Visualization orbit readout
Latitude
Unknown
Longitude
Unknown
Altitude
Unknown
Speed
Unknown
Apparent Right ascension
Unknown
Apparent Declination
Unknown
Sunlit
N/A
Visualization observer readout
Local Sidereal Time
21:25:00
Azimuth
Unknown
Elevation
Unknown
Doppler factor
Unknown
Orbital elements
Apogee altitude
186.128 km
Perigee altitude
169.863 km
Semi-major axis
6,556.133 km
Eccentricity
0.00124
Inclination
42.976°
RAAN
7.5508°
Arg. of periapsis
282.2842°
True anomaly
179.30353°
Mean anomaly
179.3018°
Eccentric anomaly
179.30267°
Mean motion
4.08857 °/min
Orbital period
88.05 mins
BSTAR
0.0031835
Loading maneuver chart data...
Computing Atmospheric mass density...
Loading historical data...
Loading historical data...
Loading historical data...
Loading historical data...
Loading historical data...
Loading historical data...
Loading historical data...

Documentation

Showing up to 5 results
|